Regional Weather Roundup
Issued by NWS

Home | Current Version | Previous Version | Graphics & Text | Print | Product List | Glossary On
Versions: 1 2 3 4 5 6 7 8 9 10 11 12 13 14 15 16 17 18 19 20 21 22 23 24 25 26 27 28 29 30 31 32 33 34 35 36 37 38 39 40 41 42 43 44 45 46 47 48 49 50
827
ASUS43 KLOT 170408
RWRIL

ILLINOIS REGIONAL WEATHER ROUNDUP
NATIONAL WEATHER SERVICE CHICAGO/ROMEOVILLE IL
1000 PM CST MON JAN 16 2017

NOTE: "FAIR" INDICATES FEW OR NO CLOUDS BELOW 12,000 FEET WITH NO
SIGNIFICANT WEATHER AND/OR OBSTRUCTIONS TO VISIBILITY.

* THESE STATIONS ARE NOT UNDER NWS QUALITY CONTROL. THEY ALSO MAY NOT
  REPORT WEATHER SUCH AS PRECIPITATION OR FOG.

ILZ001-002-007-009-015-016-024-170500-
NORTHWEST ILLINOIS

CITY           SKY/WX    TMP DP  RH WIND       PRES   REMARKS
MOLINE         LGT RAIN  37  35  92 CALM      29.83F VSB 1/2
STERLING*      MIX PCPN  35  35 100 E8        29.85F VSB 1   WCI  29
SAVANNA*       CLOUDY    36  36  99 NE6       29.86F FOG     WCI  31
$$

ILZ003-004-008-010-011-017-018-170500-
NORTH CENTRAL ILLINOIS

CITY           SKY/WX    TMP DP  RH WIND       PRES   REMARKS
ROCKFORD       CLOUDY    37  36  96 E6        29.89F FOG     WCI  32
FREEPORT*      FOG       33  33  99 E5        29.89F VSB 1   WCI  29
ROCHELLE*      CLOUDY    36  36 100 E6        29.88F FOG     WCI  31
DE KALB*       FOG       36  36  99 E8        29.88F VSB 1   WCI  30
$$

ILZ005-006-012>014-019>023-170500-
NORTHEAST ILLINOIS

CITY           SKY/WX    TMP DP  RH WIND       PRES   REMARKS
CHICAGO-OHARE  CLOUDY    37  36  96 NE6       29.90F FOG     WCI  32
CHICAGO-MIDWAY CLOUDY    37  36  96 E5        29.90F FOG     WCI  33
AURORA         CLOUDY    38  37  97 NE7       29.89F FOG     WCI  33
LANSING*       DRIZZLE   40  40 100 SE7       29.91F
JOLIET*        CLOUDY    42  42 100 SE7       29.89F FOG
WAUKEGAN       FOG       36  36 100 E9        29.91F VSB 1/4 WCI  29
DUPAGE AIRPORT CLOUDY    37  36  96 E5        29.89F FOG     WCI  33
KANKAKEE*      FOG       40  40  97 CALM      29.90F VSB 1/2
WHEELING       CLOUDY    37  36  96 E5        29.92F FOG     WCI  33
MORRIS*        FOG       38  38  98 E3        29.88F VSB 1/2
ROMEOVILLE*    CLOUDY    40  40 100 SE6       29.88F FOG
NORTHERLY ISL    N/A     35  34  96 E2          N/A
$$

LMZ740>746-170500-
SOUTHERN LAKE MICHIGAN

STATION/POSITION SKY/WX   TEMP    WIND        PRES    VSBY  WAVE
                          AIR SEA DIR/SP/G                  HT/PER
                          (F)     (DEG/KT/KT) (MB)    (MI)  (FT/S)
HARRISON CRIB              37     110/ 12/ 12   N/A
BURNHAM HARBOR             35      40/  1/  3   N/A
CALUMET HARBOR             36      90/  5/  5 1012.5F
BURNS HARBOR               42     140/  9/ 15 1013.9F
MICHIGAN CITY              40     110/  8/  9   N/A
$$

ILZ025>027-034>036-040-047-049-050-058-095>099-170500-
WEST-CENTRAL ILLINOIS

CITY           SKY/WX    TMP DP  RH WIND       PRES   REMARKS
QUINCY         LGT RAIN  45  45 100 NW8       29.82R VSB 1/4
GALESBURG*     RAIN      39  39 100 CALM      29.81F VSB 1/4
MACOMB*        LGT SNOW  41  41 100 W3        29.84S VSB 3/4
JACKSONVILLE*  CLOUDY    52  52 100 S9        29.81F FOG
PITTSFIELD*    LGT RAIN  50  50 100 S3        29.82F VSB 1/4
$$

ILZ028>032-037-038-041>044-048-051>054-059>061-170500-
CENTRAL ILLINOIS

CITY           SKY/WX    TMP DP  RH WIND       PRES   REMARKS
PONTIAC        FOG       40  40 100 SE9       29.87F VSB 3/4
BLOOMINGTON    LGT RAIN  47  47 100 S12       29.85F VSB 1/4
DECATUR        CLOUDY    52  52 100 S12       29.85F FOG
PEORIA         LGT RAIN  47  47 100 E6        29.81F VSB 1/8
LACON*         FOG       36  36 100 NE3       29.83F VSB 1/2
LINCOLN*       CLOUDY    48  48 100 SE5       29.83F VSB 1/4
SPRINGFIELD    FOG       53  52  96 S12       29.83F VSB 3/4
TAYLORVILLE    CLOUDY    52  52  99 SE7       29.84F FOG
$$

ILZ033-039-045-046-055>057-062-063-170500-
EAST-CENTRAL ILLINOIS

CITY           SKY/WX    TMP DP  RH WIND       PRES   REMARKS
CHAMPAIGN      LGT RAIN  52  51  97 SE14      29.87F FOG
RANTOUL*       FOG       51  51  99 SE8       29.88F VSB 1
MATTOON        LGT RAIN  54  53  97 SE10      29.88F
PARIS*         CLOUDY    53  53 100 SE14      29.92S
$$

ILZ079-100>102-170500-
SOUTHWEST ILLINOIS

CITY           SKY/WX    TMP DP  RH WIND       PRES   REMARKS
ALTON          MOCLDY    54  54 100 S7        29.85F
BELLEVILLE     CLOUDY    55  55 100 S7        29.84F
CAHOKIA*       PTCLDY    55  53  93 CALM      29.85S
SPARTA*        MOCLDY    59  58  96 S9G16     29.88F
$$

ILZ064>066-069>071-074>076-080>082-084>086-088>090-092>094-170500-
SOUTH-CENTRAL ILLINOIS

CITY           SKY/WX    TMP DP  RH WIND       PRES   REMARKS
CARBONDALE     CLOUDY    62  60  93 SW15      29.92R
CAIRO*         CLOUDY    60  59  97 S14       29.94S
EFFINGHAM*     CLOUDY    57  57 100 SE8       29.91F
MARION         CLOUDY    63  61  94 SW9       29.93S
MT. VERNON     CLOUDY    57  56  96 S8        29.90F
CENTRALIA*     CLOUDY    58  57  97 S9        29.87F
SALEM*         CLOUDY    58  56  92 SE6       29.88F
METROPOLIS*    CLOUDY    62  60  94 S12G18    29.94F THUNDER
$$

ILZ067-068-072-073-078-083-087-091-170500-
SOUTHEAST ILLINOIS

CITY           SKY/WX    TMP DP  RH WIND       PRES   REMARKS
LAWRENCEVILLE  CLOUDY    56  55  97 SE13      29.93F
FLORA*         CLOUDY    57  55  94 S12G17    29.91F
FAIRFIELD*     CLOUDY    56  56  97 S6        29.91F
HARRISBURG*    CLOUDY    61  59  91 S12G20    29.94S
ROBINSON*      CLOUDY    55  55  99 SE12      29.93F
CARMI*         CLOUDY    56  56  97 S10       29.94S
$$

ABBREVIATIONS USED IN REMARKS
   TC - TEMPERATURE IN CELSIUS
  WCI - WIND CHILL INDEX
   HX - HEAT INDEX
  VSB - VISIBILITY
$$





USA.gov is the U.S. government's official web portal to all federal, state and local government web resources and services.